FW7072 Weather Reports


time (UTC)temp
C
wind
direction
speed
KPH
gust
KPH
rain 1hr
cm
rain 24hr
cm
rain mn
cm
humidity
%
barometer
mb
20260906082946 21 358 0.0 0.0 0.00 0.00 0.00 99 1013.5
20260906082442 21 0 1.6 1.6 0.00 0.00 0.00 99 1013.6
20260906081937 21 344 0.0 0.0 0.00 0.00 0.00 99 1013.5
20260906081432 21 336 0.0 0.0 0.00 0.00 0.00 99 1013.5
20260906080929 21 331 0.0 0.0 0.00 0.00 0.00 99 1013.6
20260906080425 21 329 0.0 0.0 0.00 0.00 0.00 99 1013.9
20260906075925 21 334 0.0 0.0 0.00 0.00 0.00 99 1013.9
20260906075420 21 334 0.0 0.0 0.00 0.00 0.00 99 1013.9
20260906074915 21 333 0.0 0.0 0.00 0.00 0.00 99 1013.8
20260906074415 21 346 0.0 0.0 0.00 0.00 0.00 99 1013.7
20260906073914 21 343 0.0 0.0 0.00 0.00 0.00 99 1014.0
20260906073408 21 331 0.0 0.0 0.00 0.00 0.00 99 1014.0
20260906072905 21 342 0.0 0.0 0.00 0.00 0.00 99 1014.0
20260906072400 21 324 0.0 0.0 0.00 0.00 0.00 99 1014.0
20260906071856 21 335 0.0 0.0 0.00 0.00 0.00 99 1014.2
20260906071351 21 331 0.0 0.0 0.00 0.00 0.00 99 1014.2
20260906070847 21 332 0.0 0.0 0.00 0.00 0.00 99 1014.0
20260906070343 21 337 0.0 0.0 0.00 0.00 0.00 99 1013.9
20260906065838 21 348 0.0 0.0 0.00 0.00 0.00 99 1014.2
20260906065332 21 355 1.6 1.6 0.00 0.00 0.00 99 1013.9
20260906064829 21 337 0.0 0.0 0.00 0.00 0.00 99 1014.0
20260906064325 21 326 0.0 0.0 0.00 0.00 0.00 99 1014.2
20260906063824 21 329 0.0 0.0 0.00 0.00 0.00 99 1014.1
20260906063320 21 329 0.0 0.0 0.00 0.00 0.00 99 1013.9
20260906062815 21 341 0.0 0.0 0.00 0.00 0.00 99 1013.8
20260906062314 21 330 0.0 0.0 0.00 0.00 0.00 99 1014.0
20260906061810 21 340 0.0 0.0 0.00 0.00 0.00 99 1014.2
20260906061306 21 331 0.0 0.0 0.00 0.00 0.00 99 1014.1
20260906060801 21 333 0.0 0.0 0.00 0.00 0.00 99 1014.2
20260906060259 21 340 0.0 0.0 0.00 0.00 0.00 99 1014.3
20260906055754 21 338 0.0 0.0 0.00 0.00 0.00 99 1014.6
20260906055249 21 332 0.0 0.0 0.00 0.00 0.00 99 1014.4
20260906054744 21 331 0.0 0.0 0.00 0.00 0.00 99 1014.1
20260906054240 21 332 0.0 0.0 0.00 0.00 0.00 99 1014.3
20260906053736 21 327 0.0 0.0 0.00 0.00 0.00 99 1014.6
20260906053232 21 332 0.0 0.0 0.00 0.00 0.00 99 1014.5
20260906052727 21 332 0.0 0.0 0.00 0.00 0.00 99 1014.5
20260906052223 21 328 0.0 0.0 0.00 0.00 0.00 99 1014.5
20260906051720 22 329 0.0 0.0 0.00 0.00 0.00 99 1014.5
20260906051219 22 348 0.0 1.6 0.00 0.00 0.00 99 1014.5
20260906050714 22 347 0.0 0.0 0.00 0.00 0.00 99 1014.3
20260906050210 22 326 0.0 0.0 0.00 0.00 0.00 99 1014.5
20260906045708 22 348 0.0 1.6 0.00 0.00 0.00 99 1014.8
20260906045203 22 353 0.0 0.0 0.00 0.00 0.00 99 1015.1
20260906044659 22 1 1.6 1.6 0.00 0.00 0.00 99 1014.7
20260906044154 22 331 0.0 0.0 0.00 0.00 0.00 99 1014.7
20260906043650 22 333 0.0 0.0 0.00 0.00 0.00 99 1014.8
20260906043146 22 334 0.0 0.0 0.00 0.00 0.00 99 1014.6
20260906042645 22 337 0.0 0.0 0.00 0.00 0.00 99 1014.4
20260906042139 22 331 0.0 0.0 0.00 0.00 0.00 99 1014.2
20260906041635 22 339 0.0 0.0 0.00 0.00 0.00 99 1014.2
20260906041130 22 40 1.6 1.6 0.00 0.00 0.00 99 1014.6
20260906040625 22 332 0.0 0.0 0.00 0.00 0.00 99 1014.5
20260906040121 22 346 0.0 1.6 0.00 0.15 0.15 99 1014.3
20260906035616 22 335 0.0 0.0 0.00 0.15 0.15 99 1014.6
20260906035112 22 333 0.0 0.0 0.00 0.15 0.15 99 1014.6
20260906034611 22 332 0.0 0.0 0.00 0.15 0.15 99 1014.5
20260906034106 22 331 0.0 0.0 0.00 0.15 0.15 99 1014.6
20260906033602 22 330 0.0 0.0 0.00 0.15 0.15 98 1014.3
20260906033057 22 330 0.0 0.0 0.00 0.15 0.15 98 1014.6
20260906032553 22 329 0.0 0.0 0.00 0.15 0.15 98 1014.9
20260906032048 22 325 0.0 0.0 0.00 0.15 0.15 98 1014.8
20260906031543 23 358 1.6 1.6 0.00 0.15 0.15 98 1014.8
20260906031039 23 350 1.6 1.6 0.00 0.15 0.15 98 1014.8
20260906030538 23 353 1.6 1.6 0.00 0.15 0.15 98 1014.8
20260906030037 23 343 0.0 0.0 0.00 0.15 0.15 98 1014.7
20260906025532 23 333 0.0 0.0 0.00 0.15 0.15 97 1014.8
20260906025030 23 331 0.0 0.0 0.00 0.15 0.15 97 1014.7
20260906024526 23 345 0.0 0.0 0.00 0.15 0.15 97 1014.5
20260906024025 23 336 0.0 0.0 0.00 0.15 0.15 97 1014.8
20260906023522 23 336 0.0 0.0 0.00 0.15 0.15 97 1014.6
20260906023016 23 332 0.0 0.0 0.00 0.15 0.15 97 1014.9
20260906022512 23 333 0.0 0.0 0.00 0.15 0.15 97 1014.7
20260906022007 23 336 0.0 0.0 0.00 0.15 0.15 97 1014.8
20260906021502 23 339 0.0 1.6 0.00 0.15 0.15 97 1014.8
20260906020956 23 11 3.2 3.2 0.00 0.15 0.15 97 1014.7
20260906020450 23 353 1.6 1.6 0.00 0.15 0.15 97 1014.6
20260906015950 23 20 3.2 3.2 0.00 0.15 0.15 96 1014.5
20260906015449 23 352 1.6 1.6 0.00 0.15 0.15 96 1014.4
20260906014944 23 62 0.0 0.0 0.00 0.15 0.15 96 1014.4
20260906014444 23 357 0.0 0.0 0.00 0.15 0.15 96 1014.4
20260906013940 24 18 0.0 0.0 0.00 0.15 0.15 96 1014.5
20260906013430 24 338 0.0 0.0 0.00 0.15 0.15 95 1014.6
20260906012925 24 339 0.0 0.0 0.00 0.15 0.15 95 1014.5
20260906012425 24 332 0.0 0.0 0.00 0.15 0.15 95 1014.5
20260906011924 25 332 0.0 0.0 0.00 0.15 0.15 94 1014.3
20260906011420 25 330 0.0 0.0 0.00 0.15 0.15 94 1014.0
20260906010915 25 330 0.0 0.0 0.00 0.15 0.15 94 1014.3
20260906010411 25 329 0.0 0.0 0.00 0.15 0.15 93 1014.1
20260906005907 25 343 0.0 0.0 0.00 0.15 0.15 92 1014.1
20260906005406 25 338 0.0 0.0 0.00 0.15 0.15 92 1013.9
20260906004904 25 346 0.0 0.0 0.00 0.15 0.15 92 1013.8
20260906004359 25 1 1.6 1.6 0.00 0.15 0.15 92 1013.9
20260906003854 25 334 0.0 0.0 0.00 0.15 0.15 91 1014.2
20260906003350 25 331 0.0 0.0 0.00 0.15 0.15 91 1013.9
20260906002845 25 346 1.6 1.6 0.00 0.15 0.15 90 1013.8
20260906002344 26 12 1.6 3.2 0.00 0.15 0.15 89 1013.7
20260906001840 26 349 1.6 1.6 0.00 0.15 0.15 88 1013.9
20260906001336 26 347 0.0 1.6 0.00 0.15 0.15 86 1013.8
20260906000830 26 0 3.2 3.2 0.00 0.15 0.15 86 1013.8
20260906000326 26 345 1.6 1.6 0.00 0.15 0.15 84 1013.7
20260905235825 26 332 0.0 0.0 0.00 0.15 0.15 84 1013.6
20260905235320 26 332 0.0 0.0 0.00 0.15 0.15 84 1013.9
20260905234815 27 332 0.0 1.6 0.00 0.15 0.15 83 1013.7
20260905234310 27 332 0.0 0.0 0.00 0.15 0.15 83 1013.7
20260905233805 27 332 0.0 0.0 0.00 0.15 0.15 82 1013.6
20260905233300 27 332 0.0 0.0 0.00 0.15 0.15 81 1013.8
20260905232759 28 333 0.0 0.0 0.00 0.15 0.15 80 1013.8
20260905232255 28 331 0.0 0.0 0.00 0.15 0.15 78 1013.6
20260905231751 28 327 1.6 1.6 0.00 0.15 0.15 78 1013.7
20260905231246 28 331 0.0 1.6 0.00 0.15 0.15 77 1013.5
20260905230742 28 334 0.0 0.0 0.00 0.15 0.15 76 1013.5
20260905230240 28 353 0.0 0.0 0.00 0.15 0.15 77 1013.7
20260905225739 28 338 1.6 1.6 0.00 0.15 0.15 76 1013.8
20260905225235 28 331 0.0 1.6 0.00 0.15 0.15 76 1013.8
20260905224734 28 335 3.2 3.2 0.00 0.15 0.15 75 1014.0
20260905224230 28 318 1.6 1.6 0.00 0.15 0.15 75 1014.0
20260905223726 28 318 3.2 3.2 0.00 0.15 0.15 75 1014.1
20260905223222 29 330 3.2 3.2 0.00 0.15 0.15 75 1014.1
20260905222718 29 333 1.6 1.6 0.00 0.15 0.15 74 1014.1
20260905222217 29 327 0.0 0.0 0.00 0.15 0.15 74 1014.2
20260905221713 29 339 0.0 0.0 0.00 0.15 0.15 74 1014.3
20260905221210 29 322 1.6 1.6 0.00 0.15 0.15 73 1014.1
20260905220705 29 330 4.8 4.8 0.00 0.15 0.15 72 1014.2
20260905220201 29 320 4.8 8.0 0.00 0.15 0.15 72 1014.2
20260905215700 29 354 4.8 4.8 0.00 0.15 0.15 72 1014.4
20260905215156 29 343 4.8 4.8 0.00 0.15 0.15 71 1014.4
20260905214652 29 327 3.2 3.2 0.00 0.15 0.15 73 1014.2
20260905214147 30 320 3.2 3.2 0.00 0.15 0.15 71 1014.3
20260905213642 30 3 6.4 8.0 0.00 0.15 0.15 73 1014.0
20260905213137 30 323 3.2 4.8 0.00 0.15 0.15 72 1014.0
20260905212633 30 339 0.0 0.0 0.00 0.15 0.15 74 1014.1
20260905212132 30 331 1.6 1.6 0.00 0.15 0.15 75 1014.0
20260905211627 29 336 0.0 0.0 0.00 0.15 0.15 74 1014.0
20260905211122 29 353 4.8 4.8 0.00 0.15 0.15 75 1013.8
20260905210619 30 340 8.0 8.0 0.00 0.15 0.15 75 1013.7
20260905210113 30 336 0.0 1.6 0.00 0.15 0.15 75 1013.6
20260905205613 29 333 4.8 4.8 0.00 0.15 0.15 75 1013.8
20260905205113 30 350 6.4 11.3 0.00 0.15 0.15 75 1013.9
20260905204612 30 322 1.6 1.6 0.00 0.15 0.15 74 1014.1
20260905204108 30 324 4.8 4.8 0.00 0.15 0.15 74 1013.9
20260905203602 30 286 4.8 4.8 0.00 0.15 0.15 73 1013.9
20260905203057 30 341 6.4 9.7 0.00 0.15 0.15 74 1014.0
20260905202553 30 339 3.2 3.2 0.00 0.15 0.15 73 1014.0
20260905202048 30 327 3.2 3.2 0.00 0.15 0.15 70 1013.9
20260905201543 30 308 1.6 1.6 0.00 0.15 0.15 73 1013.9
20260905201043 30 310 3.2 3.2 0.00 0.15 0.15 73 1014.0
20260905200538 29 2 8.0 9.7 0.00 0.15 0.15 74 1014.2
20260905200038 30 317 1.6 3.2 0.00 0.15 0.15 72 1014.1
20260905195532 30 311 1.6 3.2 0.00 0.15 0.15 71 1014.3
20260905195028 30 311 3.2 3.2 0.00 0.15 0.15 73 1014.3
20260905194527 30 359 3.2 4.8 0.00 0.15 0.15 73 1014.3
20260905194021 29 336 0.0 0.0 0.00 0.15 0.15 72 1014.6
20260905193516 28 319 1.6 1.6 0.00 0.15 0.15 73 1014.4
20260905193011 28 314 1.6 1.6 0.00 0.15 0.15 71 1014.7
20260905192507 28 332 1.6 1.6 0.00 0.15 0.15 76 1014.7
20260905192003 28 295 4.8 8.0 0.00 0.15 0.15 73 1014.7
20260905191502 28 303 1.6 1.6 0.00 0.15 0.15 74 1014.5
20260905191001 28 317 0.0 0.0 0.00 0.15 0.15 75 1014.8
20260905190458 28 326 0.0 0.0 0.00 0.15 0.15 77 1015.0
20260905185957 27 322 0.0 0.0 0.00 0.15 0.15 77 1015.1
20260905185452 27 32 1.6 3.2 0.00 0.15 0.15 78 1015.1
20260905184951 26 352 1.6 3.2 0.00 0.15 0.15 79 1015.3
20260905184447 27 80 4.8 8.0 0.00 0.15 0.15 79 1015.6
20260905183945 26 14 1.6 1.6 0.00 0.15 0.15 81 1015.7
20260905183445 27 332 0.0 1.6 0.00 0.15 0.15 80 1015.8
20260905182940 26 324 0.0 0.0 0.00 0.15 0.15 79 1016.0
20260905182439 26 106 3.2 4.8 0.00 0.15 0.15 82 1016.2
20260905181935 26 334 0.0 1.6 0.00 0.15 0.15 84 1016.5
20260905181429 25 240 3.2 3.2 0.00 0.15 0.15 86 1016.6
20260905180928 25 351 0.0 0.0 0.00 0.15 0.15 86 1016.5
20260905180423 25 321 0.0 0.0 0.00 0.15 0.15 88 1016.5
20260905175918 25 167 8.0 9.7 0.00 0.15 0.15 89 1016.6
20260905175418 23 354 1.6 3.2 0.00 0.15 0.15 91 1016.8
20260905174913 23 327 0.0 0.0 0.00 0.15 0.15 96 1017.1
20260905174408 22 10 1.6 3.2 0.00 0.15 0.15 97 1017.3
20260905173904 22 342 0.0 0.0 0.00 0.15 0.15 98 1017.5
20260905173400 22 39 0.0 0.0 0.00 0.15 0.15 98 1017.5
20260905172855 22 334 0.0 0.0 0.00 0.15 0.15 99 1017.8
20260905172353 22 330 0.0 0.0 0.00 0.15 0.15 99 1017.8
20260905171849 21 336 0.0 0.0 0.00 0.15 0.15 98 1017.6
20260905171346 22 331 0.0 0.0 0.00 0.15 0.15 99 1017.4
20260905170842 21 335 0.0 0.0 0.00 0.15 0.15 98 1017.8
20260905170338 21 50 3.2 4.8 0.00 0.15 0.15 98 1018.0
20260905165837 21 327 0.0 0.0 0.00 0.15 0.15 98 1017.5
20260905165332 21 333 0.0 1.6 0.00 0.15 0.15 98 1017.3
20260905164826 21 9 1.6 1.6 0.00 0.15 0.15 98 1017.0
20260905164321 21 332 0.0 0.0 0.00 0.15 0.15 98 1017.1
20260905163817 21 331 0.0 0.0 0.00 0.15 0.15 98 1017.7
20260905163313 21 161 3.2 3.2 0.00 0.15 0.15 98 1017.8
20260905162809 21 328 0.0 0.0 0.00 0.15 0.15 98 1017.5
20260905162308 21 331 1.6 1.6 0.00 0.15 0.15 99 1017.7
20260905161803 22 329 0.0 1.6 0.00 0.15 0.15 98 1017.5
20260905161301 22 335 3.2 3.2 0.00 0.15 0.15 97 1018.3
20260905160755 22 328 0.0 0.0 0.00 0.15 0.15 96 1018.2
20260905160255 22 4 1.6 3.2 0.00 0.15 0.15 96 1018.2
20260905155750 23 34 1.6 4.8 0.18 0.15 0.15 95 1017.6
20260905155248 25 103 8.0 11.3 0.79 0.15 0.15 93 1017.7
20260905154743 26 335 1.6 1.6 0.61 0.13 0.13 90 1017.7
20260905154239 26 344 1.6 1.6 0.00 0.03 0.03 88 1017.9
20260905153735 26 329 1.6 3.2 0.00 0.03 0.03 88 1018.0
20260905153230 26 290 11.3 12.9 0.00 0.03 0.03 88 1017.9
20260905152724 27 333 0.0 0.0 0.00 0.03 0.03 83 1017.3
20260905152219 27 333 0.0 0.0 0.00 0.03 0.03 84 1017.0
20260905151719 27 330 0.0 0.0 0.00 0.03 0.03 82 1017.0
20260905151215 28 332 0.0 0.0 0.00 0.03 0.03 82 1017.0
20260905150710 28 350 0.0 0.0 0.00 0.03 0.03 80 1017.1
20260905150209 28 333 1.6 1.6 0.00 0.03 0.03 80 1016.8
20260905145706 28 337 0.0 0.0 0.00 0.03 0.03 81 1016.8
20260905145201 27 331 0.0 0.0 0.00 0.03 0.03 84 1016.8
20260905144700 27 334 3.2 3.2 0.00 0.03 0.03 83 1016.7
20260905144155 27 349 0.0 1.6 0.00 0.03 0.03 83 1016.7
20260905143654 27 335 1.6 3.2 0.00 0.03 0.03 83 1016.5
20260905143149 27 178 4.8 4.8 0.00 0.03 0.03 83 1016.3
20260905142647 27 311 1.6 3.2 0.00 0.03 0.03 83 1016.5
20260905142147 27 337 1.6 3.2 0.00 0.03 0.03 84 1016.4
20260905141642 27 287 1.6 1.6 0.00 0.03 0.03 84 1016.6
20260905141139 27 328 0.0 0.0 0.00 0.03 0.03 85 1017.2
20260905140634 26 328 3.2 3.2 0.00 0.03 0.03 87 1016.8
20260905140133 26 43 3.2 3.2 0.00 0.03 0.03 88 1016.8
20260905135628 26 27 1.6 1.6 0.00 0.03 0.03 88 1016.8
20260905135123 26 44 1.6 1.6 0.00 0.03 0.03 88 1016.9
20260905134613 26 20 3.2 3.2 0.00 0.03 0.03 87 1017.1
20260905134111 26 341 0.0 0.0 0.00 0.03 0.03 87 1016.9
20260905133607 26 19 1.6 1.6 0.00 0.03 0.03 87 1017.1
20260905133107 25 342 0.0 1.6 0.00 0.03 0.03 89 1016.8
20260905132606 25 333 0.0 1.6 0.00 0.03 0.03 89 1017.0
20260905132101 25 353 0.0 1.6 0.00 0.03 0.03 89 1016.9
20260905131556 25 344 0.0 1.6 0.00 0.03 0.03 91 1016.8
20260905131052 25 337 0.0 0.0 0.00 0.03 0.03 90 1017.0
20260905130550 24 350 1.6 1.6 0.00 0.03 0.03 91 1016.8
20260905130046 24 202 1.6 3.2 0.00 0.03 0.03 92 1017.2
20260905125545 23 19 0.0 1.6 0.00 0.03 0.03 93 1017.2
20260905125041 23 8 1.6 3.2 0.00 0.03 0.03 94 1017.1
20260905124537 23 22 1.6 3.2 0.00 0.03 0.03 94 1017.0
20260905124033 22 350 0.0 1.6 0.00 0.03 0.03 96 1017.3
20260905123528 22 21 3.2 3.2 0.13 0.03 0.03 96 1017.2
20260905123025 22 1 0.0 0.0 0.13 0.03 0.03 96 1017.2
20260905122519 22 6 1.6 1.6 0.00 0.00 0.00 97 1017.2
20260905122015 22 34 1.6 1.6 0.00 0.00 0.00 98 1017.0
20260905121514 21 61 3.2 3.2 0.00 0.00 0.00 98 1017.0
20260905121009 21 353 0.0 0.0 0.00 0.00 0.00 99 1016.9
20260905120509 21 345 0.0 0.0 0.00 0.00 0.00 99 1016.8
20260905120004 21 346 0.0 0.0 0.00 0.00 0.00 99 1016.8
20260905115503 21 338 0.0 0.0 0.00 0.00 0.00 99 1016.8
20260905114958 21 332 0.0 0.0 0.00 0.00 0.00 99 1016.8
20260905114458 20 345 0.0 0.0 0.00 0.00 0.00 99 1016.7
20260905113956 20 332 0.0 0.0 0.00 0.00 0.00 99 1016.7
20260905113452 20 331 0.0 0.0 0.00 0.00 0.00 99 1016.4
20260905112947 20 331 0.0 0.0 0.00 0.00 0.00 99 1016.7
20260905112442 20 331 0.0 0.0 0.00 0.00 0.00 99 1016.6
20260905111937 20 331 0.0 0.0 0.00 0.00 0.00 99 1016.4
20260905111431 20 331 0.0 0.0 0.00 0.00 0.00 99 1016.3
20260905110926 20 331 0.0 0.0 0.00 0.00 0.00 99 1016.3
20260905110425 20 330 0.0 0.0 0.00 0.00 0.00 99 1016.4
20260905105920 20 330 0.0 0.0 0.00 0.00 0.00 99 1016.2
20260905105420 20 333 0.0 0.0 0.00 0.00 0.00 99 1016.3
20260905104919 20 331 0.0 0.0 0.00 0.00 0.00 99 1016.2
20260905104416 20 338 0.0 0.0 0.00 0.00 0.00 99 1016.1
20260905103910 20 332 0.0 0.0 0.00 0.00 0.00 99 1016.2
20260905103406 20 337 0.0 0.0 0.00 0.00 0.00 99 1016.0
20260905102902 20 335 0.0 0.0 0.00 0.00 0.00 99 1016.1
20260905102358 20 340 0.0 0.0 0.00 0.00 0.00 99 1015.9
20260905101858 20 315 0.0 0.0 0.00 0.00 0.00 99 1016.1
20260905101351 20 1 0.0 0.0 0.00 0.00 0.00 99 1016.2
20260905100851 20 332 0.0 0.0 0.00 0.00 0.00 99 1016.0
20260905100347 20 349 0.0 0.0 0.00 0.00 0.00 99 1016.0
20260905095846 20 333 0.0 0.0 0.00 0.00 0.00 99 1015.9
20260905095340 20 325 0.0 0.0 0.00 0.00 0.00 99 1015.8
20260905094835 21 334 0.0 0.0 0.00 0.00 0.00 99 1015.9
20260905094331 21 335 0.0 0.0 0.00 0.00 0.00 99 1016.0
20260905093829 20 331 0.0 0.0 0.00 0.00 0.00 99 1016.0
20260905093325 20 334 0.0 0.0 0.00 0.00 0.00 99 1015.9
20260905092821 21 333 0.0 0.0 0.00 0.00 0.00 99 1016.1
20260905092316 21 342 0.0 0.0 0.00 0.00 0.00 99 1015.8
20260905091811 21 339 0.0 0.0 0.00 0.00 0.00 99 1015.4
20260905091311 21 2 0.0 0.0 0.00 0.00 0.00 99 1015.7
20260905090809 21 33 0.0 0.0 0.00 0.00 0.00 99 1015.7
20260905090305 21 353 0.0 0.0 0.00 0.00 0.00 99 1015.8
20260905085805 21 330 0.0 0.0 0.00 0.00 0.00 99 1015.4
20260905085306 21 330 0.0 0.0 0.00 0.00 0.00 99 1015.6
20260905084800 21 337 0.0 0.0 0.00 0.00 0.00 99 1015.8
20260905084259 21 351 0.0 0.0 0.00 0.00 0.00 99 1015.7
20260905083754 21 338 0.0 0.0 0.00 0.00 0.00 99 1015.7
20260905083250 21 330 0.0 0.0 0.00 0.00 0.00 99 1015.6